Temp_Advection
nan nan nan nan nan nan nan nan nan nan nan nan nan nan nan nan nan nan nan nan nan nan nan nan nan nan nan nan nan nan nan nan nan nan nan nan nan nan nan nan nan nan nan nan
nan -0 -0 -0 -0 -0 -0 -0 0 0 0 -0 -0 0 0 -0 -0 -0 -0 0 -1 -0 0 -0 0 0 0 0 0 0 -0 -0 -0 -0 -0 0 -0 -0 -0 -0 -0 -0 0 nan
nan -0 0 -0 -0 -0 -0 -0 -0 0 -0 -0 0 0 0 -0 -0 -1 -1 -0 -0 -0 -1 -0 -0 -0 0 0 -0 -0 -0 0 0 0 0 0 -0 0 -0 -0 -0 -0 -0 nan
nan -0 -0 0 0 -0 -0 -0 -0 -0 0 -0 -0 0 -0 -0 0 -0 -1 -0 1 0 -1 -0 -1 -0 -0 -0 -0 -0 -0 0 0 0 -0 -0 0 -0 -0 -0 -0 -0 -0 nan
nan -0 0 0 0 -0 0 -0 -0 -0 -0 0 -0 0 0 -0 -0 -1 -1 -0 -0 0 -0 -1 -1 0 0 -0 -0 -0 -0 -0 -0 -0 -0 0 0 -0 0 -0 -0 0 -0 nan
nan -0 0 0 -0 0 -0 -0 -0 -0 0 -0 0 0 0 -0 -1 -1 -0 -0 0 0 -0 1 2 1 0 -0 0 -0 -0 -0 -0 -0 -0 0 -0 0 -0 -0 0 0 0 nan
nan 0 -0 -0 -0 -0 -0 -0 -0 0 -0 -0 0 0 -0 -1 -1 -1 -1 -0 -0 0 1 2 1 -0 -0 -0 -0 -0 0 -0 -0 -0 0 0 0 -0 -0 0 0 0 -0 nan
nan -0 -0 -0 -0 -0 -0 -0 -0 -0 0 -0 0 -0 -0 -0 -0 -0 -0 0 0 0 0 -1 -1 -0 -1 -0 -0 -0 -0 -0 -0 -0 0 0 0 0 0 0 0 0 0 nan
nan -0 -0 -0 -0 -1 -0 -0 -0 -0 0 0 -0 -0 -0 0 0 0 1 1 0 0 0 -1 -0 -0 -0 -0 -0 -0 -0 -0 -0 0 0 0 0 0 -0 0 0 -0 -0 nan
nan -0 -0 -0 -0 0 -0 -0 -0 -0 0 -0 0 -0 0 -0 -0 -0 -0 -1 -1 -1 -1 -1 -1 0 -1 -0 -0 -0 -0 -0 0 0 0 0 0 0 0 0 -0 -0 0 nan
nan 0 -1 -0 0 0 -0 -0 -0 -0 -0 0 -0 -0 -0 -0 -0 -1 -1 -1 -0 0 0 -0 1 0 0 0 0 0 0 0 0 0 0 0 0 0 0 -0 -0 0 -0 nan
nan 0 -0 -0 0 0 0 0 -0 0 0 0 0 -0 -0 0 0 -1 0 1 2 1 1 -0 1 0 0 0 -0 0 0 0 0 0 0 0 0 0 -0 0 0 -0 -0 nan
nan -0 0 -0 -0 -0 -0 -0 -0 -0 0 -0 0 -0 -0 -0 0 1 1 1 1 1 1 1 0 -1 -0 -0 -0 -0 0 0 0 0 0 0 0 0 0 0 0 0 0 nan
nan -0 0 0 0 -0 -0 -0 -0 -0 -0 -0 -0 -0 -0 -0 0 0 1 0 0 0 0 0 -1 -0 1 0 -0 0 0 0 1 1 0 0 0 0 0 -0 0 0 0 nan
nan -0 0 0 0 -0 0 -0 -0 -0 0 0 0 -0 0 -0 -0 -0 0 1 0 -0 -1 -0 1 1 0 -1 -0 1 0 1 1 1 1 1 1 0 0 0 0 0 0 nan
nan 0 -0 0 0 0 0 0 0 -0 0 -0 -0 -0 0 -0 0 -0 0 0 0 1 0 1 1 -0 -0 0 1 1 1 1 0 1 1 1 0 0 -0 0 1 0 0 nan
nan 0 -0 0 -0 -0 -0 0 -0 -0 0 0 0 -0 0 -0 -0 0 1 0 0 0 0 0 -0 1 1 1 1 1 1 1 1 1 0 0 0 0 0 1 0 0 0 nan
nan -0 0 -0 0 0 0 0 0 0 0 -0 -0 -0 -0 -0 -0 0 0 1 0 0 0 1 1 1 1 0 1 1 1 1 0 -0 0 0 0 0 0 0 0 0 0 nan
nan 0 0 0 0 -0 0 -0 -0 0 0 -0 -0 -0 -0 -0 -0 0 0 0 0 0 0 0 0 0 -0 0 1 1 0 0 0 0 0 0 -0 -0 0 0 0 -0 -0 nan
nan 0 0 0 0 0 -0 0 -0 -0 0 -0 -0 0 -0 0 0 -0 0 0 -0 -0 0 0 0 0 0 0 0 1 0 1 0 0 0 0 -0 0 1 1 -0 0 0 nan
nan 0 0 0 0 -0 -0 -0 -0 -0 0 -0 -0 0 0 0 0 0 -0 -0 -0 -0 -0 0 0 0 0 0 0 0 1 0 0 0 0 -0 -0 1 1 0 0 0 0 nan
nan -0 -0 0 0 -0 0 0 -0 0 -0 -0 -0 0 0 -0 0 0 0 -0 -0 0 0 0 -0 -0 0 0 0 0 0 0 0 0 0 0 1 0 0 0 0 0 0 nan
nan -0 -0 -0 -0 -1 -0 -0 -0 -0 -0 -0 -0 -1 -0 0 -0 -0 -0 -0 -0 0 0 0 -0 -0 -0 0 0 0 -0 0 0 0 0 0 0 0 0 0 0 0 0 nan
nan -0 0 0 -0 -0 0 -0 0 -0 -0 -0 -0 -1 -1 -1 -0 0 0 -1 -1 -0 0 0 0 0 -0 -0 -0 -0 -0 0 0 0 0 0 0 0 0 0 0 0 0 nan
nan -0 -0 -0 -0 -0 0 0 -0 -0 -0 -0 0 0 -0 -0 -0 -0 0 -0 -0 0 0 -0 -0 0 0 -0 -0 -0 0 0 0 -0 -0 -0 -0 -0 -0 -0 0 0 0 nan
nan nan nan nan nan nan nan nan nan nan nan nan nan nan nan nan nan nan nan nan nan nan nan nan nan nan nan nan nan nan nan nan nan nan nan nan nan nan nan nan nan nan nan nan
Wind_Speed
2 4 4 2 5 4 4 3 5 3 5 4 2 1 5 11 4 14 19 26 33 37 35 30 30 27 25 25 25 23 19 23 20 19 19 16 12 10 8 7 9 6 6 3
5 1 4 4 3 2 5 7 2 1 4 2 4 3 2 8 4 5 10 28 32 33 33 35 34 32 28 26 27 24 21 21 21 16 18 16 13 12 9 8 7 8 7 5
5 3 5 3 2 4 4 5 5 3 5 3 3 4 5 4 9 14 16 24 36 36 36 38 39 35 31 29 31 29 26 23 22 18 18 18 15 14 11 10 9 8 8 7
2 3 3 3 4 5 3 7 9 10 5 2 3 2 4 9 6 9 22 21 34 38 40 41 41 38 35 30 30 32 29 24 22 19 18 17 16 16 12 12 11 9 9 9
6 2 3 4 7 8 5 11 6 2 3 2 4 2 3 11 13 15 24 22 32 40 43 45 42 39 36 32 31 32 31 28 27 23 20 16 16 15 12 11 11 10 11 10
6 3 5 6 2 9 11 7 7 5 3 2 7 5 5 11 22 14 20 24 31 37 45 46 42 40 36 34 32 29 28 24 25 25 21 19 15 17 15 14 13 12 12 12
4 3 1 6 8 6 5 7 3 2 0 5 4 4 8 17 14 21 22 26 30 36 42 40 39 40 39 35 34 31 30 26 25 23 23 20 16 16 15 13 11 16 14 15
1 5 8 4 5 7 4 6 6 6 4 2 1 5 6 9 25 27 34 31 28 34 38 40 45 44 41 36 31 33 33 29 26 24 22 21 19 17 17 15 12 12 14 16
1 5 1 5 5 10 6 5 5 5 2 1 4 6 5 2 8 16 24 28 29 32 36 41 43 44 42 37 33 30 31 30 27 25 20 19 18 16 14 13 13 11 14 13
2 3 3 2 5 1 5 7 2 2 4 4 4 5 5 11 9 15 13 23 25 25 33 39 43 46 43 39 32 29 27 26 26 23 20 19 19 16 14 14 13 10 9 14
3 2 6 1 2 7 2 2 1 4 4 5 2 6 5 11 15 19 30 42 41 39 38 39 46 47 46 41 37 32 29 25 25 24 19 18 18 17 15 12 10 9 9 9
0 4 3 6 7 2 4 6 6 4 4 2 3 6 7 6 8 27 20 26 35 38 38 38 38 45 43 42 40 35 33 29 24 24 20 17 18 16 17 15 12 11 12 12
3 1 3 5 4 4 4 3 2 3 3 5 5 6 6 5 5 17 19 21 28 33 37 42 40 37 35 38 40 39 36 33 29 25 23 19 19 18 17 16 14 14 13 14
3 2 5 4 6 1 5 5 3 4 3 4 5 6 8 5 2 7 17 22 24 25 32 39 40 41 41 34 34 38 37 34 32 29 26 22 22 20 19 17 20 16 15 16
4 5 4 5 3 6 8 4 7 1 3 4 5 4 5 7 5 5 12 19 24 29 32 38 36 34 34 29 29 32 31 28 26 26 28 26 22 18 18 24 12 21 19 17
3 1 2 1 3 4 1 8 3 4 4 1 4 2 3 8 9 11 8 15 20 25 30 33 33 24 22 25 30 32 27 19 16 22 27 26 22 21 17 21 16 18 19 19
2 3 2 5 6 4 4 0 3 1 4 3 2 3 5 6 12 10 10 13 13 14 21 28 31 32 28 25 23 21 19 21 22 21 22 19 17 19 15 22 20 22 24 21
4 3 2 2 0 4 4 1 5 2 2 4 4 2 7 14 20 21 16 13 11 11 14 16 19 20 20 23 24 22 20 19 22 23 22 22 22 22 20 23 20 19 17 16
2 4 3 3 3 3 4 6 5 4 5 3 5 5 12 18 22 23 19 18 17 13 8 7 12 13 16 19 23 19 15 22 21 17 16 22 17 17 18 25 23 22 19 16
5 6 4 3 2 4 4 2 8 7 5 4 8 11 15 2 8 3 13 15 15 11 8 7 6 6 12 16 19 20 15 16 13 15 13 12 16 19 22 22 24 19 12 10
1 3 4 1 2 6 5 1 8 3 6 10 12 12 12 6 10 21 16 14 12 13 14 11 7 5 3 4 5 21 22 17 17 20 18 17 19 19 22 18 13 9 10 10
4 4 2 2 1 3 1 2 5 3 3 10 9 12 8 20 22 18 14 15 15 17 15 14 10 10 9 8 5 8 10 12 13 15 19 18 23 15 16 10 8 9 12 11
1 5 4 6 5 5 7 7 6 6 9 8 10 15 17 22 17 15 17 16 15 15 15 16 13 13 12 12 11 10 11 10 10 10 13 13 20 10 9 10 11 12 11 10
2 5 3 2 3 2 1 3 6 7 7 11 16 18 17 14 14 17 19 18 15 16 15 15 12 12 11 10 10 10 11 11 11 9 9 9 9 8 9 10 9 9 10 12
3 7 5 1 3 3 2 8 8 6 8 10 18 11 12 14 16 18 21 23 20 21 21 16 11 12 12 12 11 9 9 9 8 8 7 7 7 6 4 3 4 5 7 7
7 6 4 5 15 6 13 15 14 12 9 13 16 16 13 14 17 18 19 20 20 22 20 19 17 14 14 14 13 11 11 10 9 9 8 6 5 5 5 4 4 4 4 4
Wind_Direction
102 96 208 135 200 160 124 108 120 155 180 134 112 162 315 341 307 197 186 188 197 208 207 204 204 202 196 198 195 190 190 176 179 179 180 186 184 169 160 150 173 181 174 152
35 252 210 176 178 153 116 123 131 33 111 87 171 276 248 313 286 298 228 194 197 201 201 204 204 205 201 199 194 192 190 181 182 179 186 195 184 177 173 178 168 178 183 172
139 222 103 157 178 127 155 177 190 152 141 48 117 310 224 222 278 293 267 211 203 201 201 202 202 204 204 202 201 199 196 197 197 199 199 195 194 195 195 204 204 189 188 192
198 273 202 161 219 155 202 192 144 140 137 193 224 221 212 226 255 267 257 215 196 201 205 198 201 202 204 204 205 206 203 202 199 202 202 202 205 199 204 209 212 214 209 196
249 243 215 195 217 164 236 110 116 88 61 92 191 130 240 156 240 226 237 213 198 199 203 200 201 203 201 203 202 203 212 215 217 208 205 208 212 214 225 219 217 235 219 225
239 238 188 209 14 177 130 83 54 52 54 288 179 190 200 188 224 232 211 211 197 199 203 203 203 203 201 205 203 203 203 202 202 210 216 218 219 209 219 222 232 228 233 234
314 246 60 127 77 20 88 78 23 349 294 234 152 164 245 198 190 215 204 198 201 196 201 200 198 205 202 205 205 205 206 207 208 213 217 217 223 224 222 223 242 239 244 241
220 317 168 177 169 172 158 141 160 208 194 247 272 231 245 213 200 202 197 195 193 194 197 200 199 209 203 206 205 208 210 212 213 215 217 223 228 236 242 239 237 244 242 248
176 277 219 199 151 149 209 205 155 104 354 101 226 280 289 144 142 164 170 172 184 189 195 203 204 211 208 208 205 208 211 212 216 220 224 228 227 235 232 232 237 254 244 233
188 299 251 245 113 327 156 167 114 23 163 241 272 270 232 212 186 173 158 171 185 194 197 206 209 216 213 211 208 208 211 213 216 220 227 229 224 233 237 229 242 242 231 237
145 125 295 357 181 186 124 165 71 130 164 166 288 268 220 206 180 183 179 183 194 202 197 203 205 218 217 213 215 211 211 211 216 218 221 227 227 234 238 236 243 244 233 235
29 146 269 245 292 231 197 193 153 137 242 243 155 275 313 194 191 187 206 201 207 205 199 199 205 217 216 217 219 217 217 212 216 218 221 222 223 225 231 239 237 238 248 246
213 357 7 355 343 42 34 5 91 103 85 200 148 266 360 34 158 184 183 192 198 200 198 200 206 211 213 222 223 224 223 222 218 219 222 224 223 226 226 229 235 240 253 255
155 130 148 206 238 344 325 343 348 149 135 180 219 310 346 349 286 156 169 180 181 180 186 193 195 200 209 222 228 226 228 227 223 222 222 223 226 225 227 227 243 239 244 258
105 190 170 175 271 86 254 353 357 71 99 180 284 314 324 316 324 312 171 172 179 188 192 194 195 195 207 220 227 222 224 225 221 223 221 221 216 225 236 249 264 239 244 247
344 170 283 66 98 268 336 30 344 15 19 5 315 7 323 11 74 70 129 171 181 192 201 197 195 194 210 221 221 221 219 212 232 233 222 210 214 230 264 247 238 235 246 259
86 90 28 169 299 37 336 291 56 224 359 310 336 239 289 49 65 66 121 169 168 182 200 200 205 206 217 236 224 209 212 239 236 216 204 210 229 243 248 232 232 247 248 247
116 103 66 259 71 183 283 183 152 229 254 311 259 214 104 101 84 80 93 126 152 178 198 209 221 221 220 217 223 232 233 225 218 222 231 235 226 246 235 230 231 243 245 247
104 116 99 199 183 274 163 212 155 147 277 186 241 154 143 112 87 65 87 95 98 106 127 204 221 225 219 210 211 214 218 226 230 239 235 227 217 220 237 234 237 236 237 238
83 92 129 127 94 215 247 180 101 91 295 184 213 177 168 227 96 137 106 93 96 101 112 125 138 185 214 229 215 202 225 226 213 200 218 226 224 236 242 232 233 225 199 205
24 31 135 131 197 281 251 196 100 118 244 172 202 194 187 163 154 137 126 110 99 98 97 93 99 135 131 158 189 211 210 217 224 232 247 235 238 237 226 217 199 188 181 193
182 130 161 104 137 282 95 126 173 227 153 174 190 185 183 129 132 131 120 105 107 105 102 95 89 82 84 95 120 135 177 220 245 251 228 230 240 199 193 211 194 190 193 203
247 176 179 171 218 268 274 234 263 187 169 173 161 154 142 128 127 119 105 102 102 105 105 100 92 90 88 83 88 97 113 120 129 146 177 177 183 218 207 214 213 203 203 207
207 164 126 87 295 288 64 153 129 151 157 157 155 152 150 135 124 116 103 100 105 104 101 91 94 92 90 87 85 84 94 104 107 116 117 126 148 174 187 205 209 186 192 204
202 151 142 352 296 283 148 135 129 141 151 163 174 169 161 147 130 122 109 98 99 89 79 79 79 85 90 89 87 87 90 96 102 105 101 95 103 111 112 134 173 189 212 217
193 174 154 209 197 180 184 165 142 122 146 167 162 162 162 155 139 129 113 105 97 90 86 89 84 81 81 85 85 83 77 71 69 76 84 89 90 98 120 143 159 179 200 219
Height
1508 1515 1521 1518 1516 1516 1518 1523 1530 1526 1526 1526 1535 1537 1531 1533 1534 1536 1537 1540 1541 1543 1550 1555 1559 1561 1564 1567 1569 1571 1574 1577 1579 1582 1584 1586 1588 1591 1593 1594 1596 1597 1598 1600
1514 1519 1511 1512 1513 1514 1520 1528 1532 1529 1528 1530 1533 1531 1533 1533 1534 1535 1537 1538 1540 1543 1548 1553 1557 1560 1562 1565 1568 1571 1574 1576 1579 1582 1584 1585 1588 1591 1593 1594 1595 1597 1598 1600
1517 1512 1508 1510 1514 1516 1522 1524 1530 1526 1529 1531 1533 1535 1531 1532 1532 1534 1536 1536 1538 1538 1543 1549 1553 1556 1561 1563 1566 1569 1573 1576 1579 1581 1583 1585 1587 1590 1592 1593 1595 1597 1599 1600
1509 1507 1507 1511 1514 1514 1523 1513 1517 1527 1530 1540 1532 1544 1533 1529 1529 1533 1534 1532 1533 1535 1540 1545 1550 1554 1557 1560 1564 1568 1572 1575 1578 1580 1582 1584 1585 1588 1590 1592 1594 1596 1598 1599
1512 1506 1507 1511 1510 1508 1516 1510 1521 1527 1534 1535 1537 1540 1527 1526 1532 1527 1529 1527 1527 1531 1535 1539 1544 1549 1555 1559 1562 1566 1571 1574 1577 1579 1582 1583 1585 1587 1589 1591 1593 1594 1596 1598
1504 1500 1501 1502 1502 1502 1509 1519 1526 1532 1540 1547 1529 1533 1532 1526 1514 1514 1520 1522 1522 1525 1530 1535 1540 1548 1554 1558 1561 1565 1568 1571 1574 1578 1581 1583 1584 1585 1587 1589 1591 1593 1594 1596
1505 1500 1499 1500 1508 1509 1512 1527 1554 1552 1554 1544 1527 1533 1513 1504 1503 1503 1509 1515 1519 1521 1526 1532 1539 1545 1551 1554 1559 1563 1566 1569 1573 1576 1579 1581 1583 1585 1586 1588 1590 1591 1592 1594
1522 1521 1502 1497 1502 1510 1516 1519 1544 1547 1552 1539 1526 1529 1504 1487 1487 1493 1502 1511 1515 1518 1521 1528 1533 1539 1546 1550 1555 1560 1564 1567 1570 1573 1577 1580 1582 1584 1585 1586 1588 1589 1590 1591
1518 1513 1492 1494 1494 1498 1514 1521 1514 1535 1535 1537 1524 1506 1488 1488 1490 1493 1499 1502 1509 1514 1517 1524 1529 1536 1542 1547 1551 1556 1560 1564 1568 1571 1575 1577 1580 1582 1583 1585 1586 1586 1587 1588
1505 1518 1494 1492 1493 1496 1502 1502 1522 1534 1543 1538 1523 1514 1504 1490 1490 1493 1495 1498 1504 1509 1514 1519 1526 1532 1538 1544 1548 1553 1557 1561 1564 1568 1572 1575 1578 1579 1581 1582 1584 1584 1585 1586
1502 1512 1503 1494 1496 1502 1505 1509 1513 1519 1526 1535 1533 1511 1479 1477 1477 1483 1479 1485 1493 1502 1507 1513 1520 1526 1533 1540 1545 1549 1553 1558 1561 1565 1568 1571 1574 1577 1578 1580 1581 1582 1583 1584
1503 1512 1517 1501 1491 1491 1493 1497 1502 1523 1519 1524 1523 1510 1473 1471 1474 1477 1481 1485 1488 1494 1500 1507 1514 1522 1530 1536 1541 1545 1550 1554 1557 1562 1566 1568 1570 1573 1575 1577 1579 1580 1582 1582
1500 1512 1522 1505 1497 1493 1499 1497 1499 1508 1513 1521 1520 1506 1478 1474 1473 1475 1478 1483 1486 1491 1498 1504 1512 1519 1526 1531 1536 1541 1545 1550 1554 1558 1562 1565 1567 1569 1571 1573 1576 1577 1579 1581
1498 1511 1509 1524 1513 1505 1507 1502 1499 1504 1517 1515 1507 1499 1489 1483 1480 1479 1479 1481 1486 1492 1498 1504 1511 1516 1521 1528 1533 1537 1541 1546 1550 1554 1557 1561 1564 1565 1568 1570 1572 1573 1575 1577
1500 1511 1509 1507 1506 1506 1517 1505 1501 1500 1509 1506 1501 1500 1495 1488 1484 1484 1482 1483 1488 1493 1498 1504 1510 1514 1520 1526 1530 1533 1538 1542 1547 1549 1552 1554 1559 1562 1564 1564 1565 1568 1572 1574
1502 1507 1506 1507 1503 1503 1507 1502 1502 1503 1504 1504 1502 1497 1492 1489 1485 1486 1484 1488 1491 1495 1499 1505 1510 1515 1518 1521 1524 1528 1534 1537 1542 1544 1547 1551 1553 1556 1558 1560 1560 1565 1567 1569
1503 1509 1512 1515 1510 1500 1512 1507 1507 1504 1503 1505 1504 1498 1493 1493 1491 1489 1488 1490 1495 1498 1500 1504 1509 1513 1517 1520 1524 1527 1532 1534 1538 1540 1543 1546 1549 1551 1553 1555 1558 1561 1563 1563
1502 1512 1512 1515 1510 1527 1506 1501 1502 1504 1500 1502 1498 1494 1494 1495 1494 1492 1492 1492 1496 1499 1502 1505 1507 1511 1515 1519 1521 1524 1527 1529 1534 1537 1539 1541 1544 1546 1548 1553 1555 1557 1558 1560
1499 1509 1520 1520 1522 1515 1505 1504 1500 1503 1502 1497 1498 1494 1495 1495 1495 1498 1499 1499 1499 1501 1503 1506 1507 1510 1512 1515 1517 1521 1524 1528 1529 1530 1534 1536 1539 1542 1545 1547 1551 1552 1554 1556
1502 1505 1514 1523 1519 1521 1503 1496 1492 1499 1512 1493 1495 1492 1494 1497 1500 1504 1502 1502 1501 1503 1504 1505 1507 1508 1509 1511 1513 1517 1518 1524 1526 1529 1532 1534 1536 1539 1541 1543 1546 1547 1550 1553
1510 1514 1517 1523 1521 1513 1499 1497 1495 1513 1510 1492 1494 1492 1494 1494 1495 1498 1501 1502 1503 1505 1504 1506 1507 1509 1510 1510 1510 1514 1517 1520 1521 1525 1527 1530 1532 1535 1538 1539 1542 1545 1548 1552
1509 1515 1520 1525 1520 1513 1497 1498 1502 1497 1493 1493 1492 1492 1495 1496 1498 1501 1504 1503 1506 1507 1507 1507 1510 1511 1513 1512 1513 1514 1515 1518 1520 1522 1524 1525 1533 1521 1531 1538 1541 1544 1545 1549
1509 1504 1511 1512 1511 1496 1494 1494 1493 1493 1491 1493 1493 1495 1499 1497 1502 1505 1505 1508 1509 1510 1512 1510 1512 1514 1515 1516 1516 1517 1518 1520 1522 1523 1525 1530 1530 1530 1534 1540 1543 1545 1548 1549
1496 1496 1501 1503 1497 1494 1493 1491 1492 1493 1494 1495 1497 1499 1502 1505 1504 1509 1508 1509 1512 1513 1514 1514 1516 1517 1518 1519 1521 1523 1523 1522 1524 1527 1528 1531 1532 1535 1537 1540 1543 1543 1545 1548
1493 1494 1498 1501 1497 1496 1495 1494 1494 1495 1496 1497 1500 1503 1506 1509 1509 1512 1512 1513 1517 1516 1514 1517 1522 1522 1523 1522 1524 1527 1527 1527 1528 1529 1531 1533 1536 1537 1539 1541 1544 1545 1547 1549
1486 1488 1495 1498 1488 1491 1493 1495 1496 1497 1498 1501 1502 1506 1509 1512 1514 1514 1515 1516 1518 1519 1522 1524 1525 1526 1526 1526 1528 1531 1532 1532 1532 1533 1534 1538 1538 1539 1542 1545 1546 1547 1547 1548